AirNav   Everest Fuels
 
 1002 users online  

TF8 Tinley Park Helistop
Chicago/Tinley Park, Illinois, USA

GOING TO CHICAGO/TINLEY PARK?


FAA INFORMATION EFFECTIVE 30 JANUARY 2020

Location

FAA Identifier: TF8
Lat/Long: 41-33-33.0000N 087-48-21.0000W
41-33.550000N 087-48.350000W
41.5591667,-87.8058333
(estimated)
Elevation: 760 ft. / 232 m (estimated)
Variation: 02W (1995)
From city: 20 miles SSW of central business district of the associated city
Time zone: UTC -6 (UTC -5 during Daylight Saving Time)
Zip code: 60477

Heliport Operations

Heliport use: Open to the public
Activation date: 02/1999
Control tower: no
ARTCC: CHICAGO CENTER
FSS: KANKAKEE FLIGHT SERVICE STATION
NOTAMs facility: IKK (NOTAM-D service available)
Attendance: UNATTENDED
Wind indicator: lighted
Segmented circle: no
Lights: SS-SR

Heliport Communications

CTAF: 122.9
WX AWOS-AV at C56 (12 nm SE): 119.125 (708-534-5256)
WX AWOS-3 at IGQ (12 nm E): 119.275 (708-895-9526)
WX AWOS-3 at LOT (13 nm W): 118.525 (815-588-4802)
WX ASOS at MDW (14 nm N): PHONE 773-884-4424
WX AWOS-3 at JOT (17 nm W): 119.975 (815-730-9560)
WX AWOS-3PT at GYY (18 nm E): 134.575 (219-944-0010)

Nearby radio navigation aids

VOR radial/distance  VOR name  Freq  Var
CGTr284/10.9CHICAGO HEIGHTS VORTAC114.2002E
EONr356/17.4PEOTONE VORTAC113.2002E
JOTr086/23.0JOLIET VOR/DME112.3002E
IKKr004/29.2KANKAKEE VOR/DME111.6000E
DPAr127/31.5DUPAGE VOR/DME108.4002E

Heliport Services

Parking: tiedowns

Runway Information

Helipad H1

Dimensions: 40 x 40 ft. / 12 x 12 m
60 FT BY 60 FT HELICOPTER PARKING PAD LOCATED 75 FT NORTH OF LNDG PAD.
Surface: asphalt, in fair condition
Runway edge lights: PERI
Traffic pattern: leftleft

Heliport Ownership and Management from official FAA records

Ownership: Publicly-owned
Owner: VILLAGE OF TINLEY PARK
16250 S. OAK PARK AVENUE
TINLEY PARK, IL 60477
Phone 708-444-5000
24 HR NON-EMERGENCY NUMBER 708-444-5300.
Manager: PAT CARR, DIR EMER MGMT
17355 S. 68TH CT
TINLEY PARK, IL 60477
Phone 708-444-5601
24 HR DISPATCH CTR 708-444-5300

Heliport Operational Statistics

Aircraft operations: 30/year *
100% transient general aviation
* for 12-month period ending 31 January 2017

Additional Remarks

32 FT UNLIT PLINES 95 FT SOUTH; 40 FT BLDG 120 FT NW; & 33 FT LGTD POLES 293 FT W; 90 FT LGTD TWR 250 FT NW OF PAD.
INGRESS/EGRESS ROUTES ARE 090 DEGS & 270 DEGS.
FOR CD CTC CHICAGO APCH AT 847-289-0926.

Instrument Procedures

There are no published instrument procedures at TF8.

Some nearby airports with instrument procedures:

C56 - Bult Field Airport (12 nm SE)
KIGQ - Lansing Municipal Airport (12 nm E)
KLOT - Lewis University Airport (13 nm W)
KMDW - Chicago Midway International Airport (14 nm N)
1C5 - Bolingbrook's Clow International Airport (17 nm NW)
KGYY - Gary/Chicago International Airport (18 nm E)
05C - Griffith-Merrillville Airport (18 nm E)
 
Loc | Ops | Rwys | IFR | FBO | Links
Com | Nav | Svcs | Stats | Notes
Area around TF8 (Tinley Park Helistop)
 
Road maps at: MapQuest Bing Google
 
Aerial photo
No photo
 
Sectional chart

 
Airport distance calculator
Flying to Tinley Park Helistop? Find the distance to fly.

From to TF8

Sunrise and sunset
Times for 24-Feb-2020
 Local
(UTC-6)
 Zulu
(UTC)
Morning civil twilight06:0712:07
Sunrise06:3512:35
Sunset17:3423:34
Evening civil twilight18:0200:02

Current date and time
Zulu (UTC)  25-Feb-2020 04:13:29
Local (UTC-6)  24-Feb-2020 22:13:29
 
METAR
KIGQ 
12nm E 
250355Z AUTO 04010KT 7SM -RA SCT019 OVC024 03/02 A2984 RMK AO2 T00270020
KLOT 
14nm W 
250355Z AUTO 06013G18KT 10SM SCT035 SCT065 OVC080 03/01 A2983 RMK AO2 T00270006
KMDW 
14nm N 
250353Z 03013KT 9SM -DZ BKN025 BKN046 OVC055 03/01 A2985 RMK AO2 RAE17DZB49 SLP117 P0000 T00330006
KJOT 
16nm W 
250355Z AUTO 05008KT 10SM SCT037 SCT046 OVC075 04/02 A2984 RMK AO2 T00380015
KGYY 
18nm E 
250345Z 05010KT 7SM -RA OVC022 03/02 A2985
TAF
KMDW 
14nm N 
242102Z 2421/2524 04013G19KT P6SM -RA SCT020 OVC050 FM250000 04013G20KT 6SM -RA BKN020 OVC050 FM250300 04014G21KT 4SM -RA BKN008 OVC015 FM250900 03014G23KT 4SM -RASN BR BKN007 OVC012 FM251600 04015G25KT 2SM -SNRA BR OVC007
KGYY 
18nm E 
250227Z 2502/2524 04011KT 6SM -RA OVC018 TEMPO 2502/2504 4SM -RA FM250500 04013G19KT 6SM -RA BKN015 OVC050 FM251700 03015G21KT 1 1/2SM -RASN BKN008 OVC012
NOTAMs
Click for the latest NOTAMs
NOTAMs are issued by the DoD/FAA and will open in a separate window not controlled by AirNav.

 

 
 

Would you like to see your business listed on this page?

 If your business provides an interesting product or service to pilots, flight crews, aircraft, or users of the Tinley Park Helistop, you should consider listing it here.  To start the listing process, click on the button below
 
Add a business
 

Other Pages about Tinley Park Helistop

Update a link
 
Copyright © AirNav, LLC. All rights reserved. Privacy Policy  Contact